Home   Weather   Qyzylorda   Past weeks

Flag for Kazakhstan Past Weather in Qyzylorda, Kazakhstan — Yesterday and Last 2 Weeks

Now
95 °F

Sunny.


Feels Like: 92 °F
Forecast: 74 / 100 °F
Wind: 10 mph from North

Location: Kzyl-Orda

Current Time: Jul 22, 2017 at 12:54:54 pm

Latest Report: Jul 22, 2017 at 12:00 pm


Visibility: 10 mi

Pressure: 29.86 "Hg

Humidity: 20%

Dew Point: 48 °F

Location of QyzylordaLocation

Past Weather in Qyzylorda — Graph

°F

Qyzylorda Temperature Yesterday

Maximum temperature yesterday: 100 °F (at 4:30 pm)
Minimum temperature yesterday: 64 °F (at 6:30 am)
Average temperature yesterday: 84 °F

High & Low Weather Summary for the Past Weeks

 TemperatureHumidityPressure
High106 °F (Jul 8, 5:00 pm)83% (Jul 12, 3:00 am)30.01 "Hg (Jul 12, 3:00 am)
Low55 °F (Jul 14, 5:30 am)9% (Jul 8, 5:00 pm)29.56 "Hg (Jul 9, 2:00 am)
Average79 °F34%29.84 "Hg
* Reported Jul 7 10:00 am — Jul 22 10:30 am, Qyzylorda. Weather by CustomWeather, © 2017

Note: Actual official high and low records may vary slightly from our data, if they occured in-between our weather recording intervals... More about our weather records

Advertising

Qyzylorda Weather History for the Previous 24 Hours

Scroll right to see more
 ConditionsComfort  
Time TempWeatherWind HumidityBarometerVisibility
10:30 am
Sat, Jul 22
91 °FSunny.6 mph26%29.86 "Hg10 mi
10:00 am90 °FSunny.8 mph27%29.86 "Hg10 mi
9:30 am88 °FSunny.6 mph29%29.86 "Hg10 mi
9:00 am82 °FPassing clouds.3 mph35%29.86 "HgN/A
8:30 am81 °FSunny.6 mph34%29.86 "Hg10 mi
8:00 am75 °FSunny.3 mph39%29.86 "Hg10 mi
7:30 am73 °FSunny.3 mph41%29.86 "Hg10 mi
7:00 am68 °FClear.6 mph53%29.86 "Hg10 mi
6:30 am66 °FClear.3 mph56%29.83 "Hg10 mi
6:00 am68 °FClear.3 mph49%29.83 "Hg10 mi
5:30 am68 °FClear.1 mph53%29.83 "Hg10 mi
5:00 am70 °FClear.1 mph53%29.83 "Hg10 mi
4:00 am68 °FClear.3 mph53%29.83 "Hg10 mi
3:00 am70 °FClear.1 mph46%29.83 "Hg10 mi
2:00 am73 °FClear.3 mph38%29.83 "Hg10 mi
1:00 am75 °FClear.3 mph31%29.83 "Hg10 mi
12:00 am79 °FClear.3 mph26%29.83 "Hg10 mi
11:00 pm
Fri, Jul 21
81 °FClear.6 mph26%29.86 "Hg10 mi
10:00 pm84 °FSunny.6 mph22%29.83 "Hg10 mi
9:00 pm91 °FSunny.6 mph16%29.83 "Hg10 mi
8:30 pm93 °FSunny.10 mph14%29.83 "Hg10 mi
8:00 pm97 °FSunny.10 mph13%29.83 "Hg10 mi
7:30 pm97 °FSunny.10 mph13%29.83 "Hg10 mi
7:00 pm99 °FSunny.10 mph12%29.83 "Hg10 mi
6:30 pm99 °FSunny.13 mph12%29.83 "Hg10 mi
6:00 pm99 °FSunny.10 mph12%29.83 "Hg10 mi
5:30 pm99 °FPassing clouds.13 mph12%29.83 "HgN/A
5:00 pm99 °FSunny.10 mph11%29.83 "Hg10 mi
4:30 pm100 °FPassing clouds.13 mph10%29.86 "HgN/A
4:00 pm99 °FPassing clouds.10 mph11%29.86 "HgN/A
3:30 pm99 °FPassing clouds.13 mph11%29.86 "HgN/A
3:00 pm99 °FSunny.13 mph12%29.86 "Hg10 mi
2:30 pm97 °FPassing clouds.13 mph13%29.86 "HgN/A
2:00 pm97 °FPassing clouds.13 mph13%29.86 "HgN/A
1:30 pm97 °FPassing clouds.13 mph12%29.86 "HgN/A
1:00 pm95 °FPassing clouds.13 mph13%29.89 "HgN/A
12:30 pm95 °FPassing clouds.13 mph14%29.89 "HgN/A
12:00 pm93 °FPassing clouds.13 mph14%29.89 "HgN/A
Weather by CustomWeather, © 2017

See weather overviewHow to use our weather pages